Total_Precipitation_Accumulation
0.79 0.84 0.88 0.89 0.97 1.12 1.23 1.25 1.26 1.24 1.23 1.22 1.18 1.14 1.08 1.02 0.97 0.96 0.95 0.98 1.05 1.06 1.09 1.11 1.08 1.06 1.13 1.17 1.23 1.30 1.39 1.50 1.45 1.03 0.83 0.78 0.80 0.76 0.73 0.68 0.62 0.61 0.58
0.80 0.80 0.84 0.86 0.86 0.95 1.04 1.14 1.21 1.28 1.21 1.18 1.15 1.10 1.05 1.00 0.96 0.94 0.89 0.89 0.93 0.96 0.99 1.04 1.03 1.00 1.02 1.06 1.12 1.12 1.13 1.17 1.25 1.08 0.80 0.72 0.68 0.64 0.63 0.62 0.59 0.56 0.51
0.73 0.74 0.74 0.74 0.75 0.81 0.88 0.97 1.04 1.13 1.14 1.11 1.11 1.06 0.98 0.94 0.93 0.90 0.86 0.86 0.88 0.87 0.89 0.97 1.02 1.05 1.05 1.06 1.07 1.07 1.06 1.09 1.16 1.16 0.90 0.72 0.66 0.62 0.63 0.61 0.59 0.58 0.52
0.66 0.71 0.72 0.68 0.68 0.74 0.83 0.88 0.92 0.97 1.04 1.03 1.05 1.09 1.08 1.02 0.98 0.96 0.92 0.88 0.90 0.89 0.89 0.93 0.98 1.01 0.99 0.96 0.99 0.97 1.00 1.05 1.08 1.13 1.05 0.88 0.74 0.64 0.67 0.67 0.66 0.61 0.59
0.60 0.67 0.71 0.72 0.76 0.86 0.90 0.86 0.86 0.88 0.94 0.98 0.98 1.04 1.07 1.07 1.05 1.04 1.01 1.00 1.02 1.03 1.00 0.96 0.95 0.99 0.98 0.95 0.95 0.95 0.98 1.05 1.13 1.19 1.12 0.96 0.81 0.72 0.66 0.62 0.67 0.66 0.65
0.48 0.53 0.60 0.67 0.76 0.86 0.93 0.91 0.87 0.85 0.90 0.97 0.96 1.01 1.09 1.11 1.24 1.21 1.12 1.09 1.08 1.05 0.99 0.91 0.88 0.91 0.91 0.94 0.95 0.95 1.02 1.12 1.22 1.26 1.18 1.01 0.80 0.72 0.72 0.82 0.91 1.01 0.94
0.41 0.43 0.49 0.61 0.72 0.78 0.83 0.88 0.89 0.90 0.99 1.08 1.09 1.10 1.17 1.28 1.34 1.16 1.10 1.01 1.00 0.96 0.89 0.84 0.80 0.77 0.81 0.76 0.81 0.88 0.92 1.03 1.12 1.13 1.07 0.86 0.75 0.71 0.87 1.02 1.05 1.07 0.94
0.45 0.47 0.50 0.57 0.67 0.78 0.82 0.88 0.93 0.96 1.04 1.13 1.18 1.20 1.22 1.25 1.27 1.16 1.06 0.90 0.86 0.83 0.78 0.73 0.72 0.71 0.72 0.78 0.85 0.91 0.84 0.80 0.81 0.79 0.77 0.73 0.73 0.78 0.98 1.20 1.28 1.30 1.10
0.42 0.47 0.47 0.52 0.62 0.73 0.83 0.91 0.96 0.99 1.05 1.10 1.09 1.07 1.04 1.06 1.06 0.97 0.96 0.85 0.84 0.77 0.71 0.71 0.71 0.68 0.76 0.90 0.95 0.97 0.84 0.71 0.71 0.78 0.83 0.82 0.84 0.88 0.95 1.21 1.44 1.55 1.34
0.39 0.44 0.46 0.49 0.57 0.67 0.77 0.87 0.92 0.93 0.93 0.93 0.92 0.87 0.85 0.87 0.93 0.85 0.85 0.83 0.83 0.77 0.72 0.71 0.77 0.76 0.85 0.97 0.92 0.92 0.85 0.70 0.67 0.68 0.70 0.71 0.67 0.70 0.85 0.99 1.38 1.78 1.53
0.40 0.45 0.48 0.51 0.56 0.64 0.69 0.73 0.75 0.73 0.71 0.70 0.69 0.67 0.66 0.70 0.76 0.74 0.75 0.77 0.78 0.79 0.78 0.71 0.71 0.86 0.95 0.98 0.89 0.74 0.75 0.82 0.76 0.68 0.67 0.67 0.66 0.66 0.70 0.76 1.00 1.63 1.92
0.42 0.46 0.50 0.52 0.51 0.52 0.54 0.58 0.56 0.55 0.55 0.54 0.54 0.56 0.57 0.60 0.65 0.69 0.73 0.78 0.82 0.77 0.73 0.67 0.69 0.86 0.85 0.81 0.75 0.76 0.84 0.79 0.66 0.69 0.70 0.69 0.68 0.69 0.71 0.75 0.80 0.97 1.29
0.41 0.42 0.43 0.43 0.42 0.43 0.43 0.44 0.46 0.48 0.49 0.51 0.51 0.52 0.54 0.55 0.58 0.67 0.68 0.75 0.80 0.73 0.70 0.74 0.78 0.79 0.72 0.68 0.71 0.75 0.72 0.68 0.72 0.80 0.78 0.72 0.70 0.74 0.79 0.84 0.85 0.86 0.93
0.32 0.31 0.31 0.31 0.33 0.34 0.35 0.36 0.39 0.41 0.42 0.43 0.46 0.46 0.46 0.48 0.48 0.53 0.60 0.65 0.71 0.69 0.72 0.74 0.71 0.68 0.66 0.67 0.71 0.69 0.64 0.69 0.85 0.90 0.82 0.75 0.75 0.82 0.86 0.93 1.06 1.07 1.13
0.24 0.23 0.23 0.24 0.29 0.33 0.33 0.34 0.37 0.39 0.43 0.45 0.43 0.43 0.45 0.46 0.49 0.60 0.65 0.63 0.68 0.71 0.70 0.61 0.57 0.59 0.61 0.60 0.60 0.63 0.65 0.69 0.77 0.80 0.85 0.85 0.84 0.92 1.01 1.10 1.25 1.32 1.34
0.22 0.21 0.22 0.20 0.24 0.31 0.35 0.35 0.39 0.42 0.47 0.51 0.50 0.46 0.44 0.48 0.53 0.58 0.61 0.67 0.72 0.72 0.64 0.57 0.55 0.55 0.56 0.58 0.58 0.60 0.64 0.69 0.78 0.89 0.94 0.98 1.03 1.10 1.18 1.23 1.36 1.45 1.38
0.22 0.23 0.24 0.23 0.26 0.29 0.32 0.32 0.33 0.35 0.40 0.45 0.48 0.48 0.47 0.47 0.49 0.53 0.59 0.63 0.59 0.59 0.53 0.52 0.54 0.54 0.54 0.56 0.61 0.65 0.69 0.70 0.84 1.02 1.12 1.17 1.24 1.28 1.33 1.37 1.38 1.35 1.21
0.22 0.24 0.23 0.24 0.28 0.30 0.32 0.32 0.31 0.29 0.30 0.33 0.37 0.43 0.46 0.46 0.47 0.50 0.57 0.54 0.48 0.49 0.48 0.48 0.48 0.51 0.55 0.60 0.65 0.73 0.79 0.81 0.91 1.04 1.14 1.20 1.29 1.41 1.44 1.39 1.30 1.22 1.11
0.20 0.21 0.22 0.23 0.25 0.28 0.30 0.32 0.31 0.28 0.28 0.27 0.27 0.33 0.42 0.45 0.47 0.50 0.51 0.46 0.45 0.45 0.44 0.45 0.45 0.49 0.56 0.62 0.69 0.77 0.87 0.98 1.06 1.20 1.24 1.27 1.33 1.48 1.45 1.29 1.15 1.02 0.94
0.18 0.21 0.22 0.21 0.23 0.25 0.27 0.29 0.31 0.28 0.26 0.25 0.25 0.27 0.34 0.43 0.43 0.41 0.43 0.44 0.46 0.48 0.46 0.46 0.46 0.49 0.57 0.63 0.70 0.80 0.92 1.00 1.09 1.19 1.24 1.26 1.32 1.41 1.36 1.13 0.95 0.88 0.81
0.18 0.19 0.22 0.21 0.21 0.23 0.25 0.27 0.30 0.31 0.29 0.27 0.26 0.30 0.41 0.43 0.40 0.39 0.41 0.43 0.46 0.49 0.52 0.54 0.52 0.54 0.59 0.67 0.75 0.82 0.94 1.02 1.11 1.23 1.26 1.22 1.19 1.14 0.98 0.90 0.85 0.82 0.81
0.19 0.18 0.19 0.19 0.20 0.23 0.26 0.26 0.26 0.27 0.28 0.27 0.25 0.30 0.40 0.36 0.32 0.32 0.35 0.37 0.37 0.41 0.48 0.57 0.59 0.59 0.71 0.90 1.07 1.15 1.09 1.05 1.08 1.21 1.22 1.10 1.00 0.90 0.83 0.84 0.83 0.83 0.83
0.19 0.19 0.20 0.20 0.21 0.25 0.27 0.24 0.24 0.25 0.27 0.27 0.27 0.27 0.30 0.31 0.30 0.30 0.30 0.30 0.31 0.34 0.38 0.46 0.55 0.55 0.61 0.83 1.11 1.45 1.55 1.36 1.26 1.31 1.33 1.15 0.96 0.89 0.90 0.90 0.83 0.82 0.79
0.18 0.21 0.23 0.23 0.24 0.25 0.25 0.24 0.25 0.26 0.27 0.27 0.27 0.27 0.27 0.29 0.29 0.28 0.28 0.28 0.29 0.30 0.33 0.41 0.50 0.54 0.60 0.80 1.02 1.19 1.34 1.47 1.62 1.58 1.47 1.40 1.15 0.97 0.92 0.89 0.80 0.74 0.73
0.21 0.22 0.24 0.25 0.25 0.25 0.26 0.27 0.27 0.27 0.28 0.28 0.28 0.28 0.28 0.28 0.29 0.28 0.27 0.28 0.30 0.31 0.30 0.36 0.47 0.56 0.65 0.80 0.98 1.11 1.20 1.32 1.43 1.40 1.28 1.19 1.04 0.90 0.86 0.84 0.76 0.70 0.69
0.22 0.24 0.26 0.27 0.27 0.26 0.27 0.28 0.29 0.29 0.30 0.29 0.29 0.30 0.30 0.30 0.29 0.28 0.29 0.30 0.32 0.31 0.30 0.32 0.39 0.52 0.65 0.78 0.86 1.01 1.13 1.09 0.92 0.82 0.93 1.00 0.93 0.80 0.78 0.82 0.76 0.72 0.70